"SCLK","SCET","ORBIT_NUMBER","ALTITUDE","LATITUDE_PLANEOGRAPHIC","LATITUDE_PLANETOCENTRIC","LOCAL_TRUE_SOLAR_TIME","WEST_LONGITUDE","X_SUN_DIR_DISTANCE","RHO_PRP_SUN_DISTANCE","SOLAR_ZENITH_ANGLE","ELECTRON_PLASMA_FREQUENCY","FPE_QUALITY","FPP_VERIFICATION","ELECTRON_PLASMA_DENSITY","ELECTRON_CYCLOTRON_PERIOD","FCP_QUALITY","B_MAGNITUDE"
"1/0362148723.35905",2014-10-23T12:52:07.342,13722,1569.00,63.05,62.83,"01:10:33",282.16,-0.650,1.300,116.53,6.90e+01,2,,5.90e+01,4.02e+00,1,8.88e+00
"1/0362148731.05955",2014-10-23T12:52:14.885,13722,1558.00,63.32,63.11,"01:19:50",282.12,-0.650,1.300,116.41,6.90e+01,2,,5.90e+01,4.07e+00,1,8.77e+00
"1/0362148738.41541",2014-10-23T12:52:22.428,13722,1548.00,63.60,63.39,"01:29:07",282.08,-0.640,1.300,116.29,6.90e+01,2,,5.90e+01,4.14e+00,1,8.63e+00
"1/0362148746.11591",2014-10-23T12:52:29.971,13722,1537.00,63.89,63.67,"01:40:42",282.03,-0.640,1.300,116.17,6.70e+01,2,,5.57e+01,4.10e+00,1,8.71e+00
"1/0362148753.47243",2014-10-23T12:52:37.515,13722,1526.00,64.17,63.95,"01:52:17",281.98,-0.640,1.300,116.05,6.80e+01,2,,5.73e+01,4.21e+00,1,8.47e+00
"1/0362148761.17293",2014-10-23T12:52:45.058,13722,1515.00,64.45,64.24,"02:03:52",281.93,-0.630,1.290,115.93,7.00e+01,2,,6.08e+01,4.18e+00,1,8.55e+00
"1/0362148768.52879",2014-10-23T12:52:52.601,13722,1504.00,64.73,64.52,"02:15:27",281.88,-0.630,1.290,115.80,7.20e+01,2,,6.43e+01,4.07e+00,1,8.77e+00
"1/0362148776.22929",2014-10-23T12:53:00.144,13722,1494.00,65.02,64.81,"02:29:19",281.82,-0.620,1.290,115.68,7.10e+01,2,,6.25e+01,4.05e+00,1,8.82e+00
"1/0362148783.58515",2014-10-23T12:53:07.687,13722,1483.00,65.31,65.10,"02:40:54",281.77,-0.620,1.290,115.55,7.20e+01,2,,6.43e+01,4.06e+00,1,8.79e+00
"1/0362148791.28630",2014-10-23T12:53:15.231,13722,1472.00,65.59,65.39,"02:54:47",281.71,-0.610,1.290,115.43,7.00e+01,2,,6.08e+01,3.97e+00,1,8.99e+00
"1/0362148798.64216",2014-10-23T12:53:22.774,13722,1462.00,65.88,65.68,"03:10:57",281.64,-0.610,1.290,115.30,7.10e+01,2,,6.25e+01,3.95e+00,1,9.05e+00
"1/0362148806.34266",2014-10-23T12:53:30.317,13722,1451.00,66.17,65.97,"03:24:49",281.58,-0.610,1.290,115.17,7.00e+01,2,,6.08e+01,3.98e+00,1,8.96e+00
"1/0362148814.04316",2014-10-23T12:53:37.860,13722,1440.00,66.47,66.26,"03:40:59",281.51,-0.600,1.280,115.04,7.20e+01,2,,6.43e+01,4.05e+00,1,8.82e+00
"1/0362148821.39902",2014-10-23T12:53:45.403,13722,1430.00,66.76,66.56,"03:57:09",281.44,-0.600,1.280,114.91,7.30e+01,2,,6.61e+01,4.20e+00,1,8.50e+00
"1/0362148829.10018",2014-10-23T12:53:52.947,13722,1419.00,67.05,66.85,"04:13:19",281.37,-0.590,1.280,114.77,7.40e+01,2,,6.79e+01,4.25e+00,1,8.40e+00
"1/0362148836.45604",2014-10-23T12:54:00.490,13722,1409.00,67.35,67.15,"04:31:46",281.29,-0.590,1.280,114.64,7.60e+01,2,,7.16e+01,4.20e+00,1,8.50e+00
"1/0362148844.15654",2014-10-23T12:54:08.033,13722,1398.00,67.64,67.45,"04:47:56",281.22,-0.580,1.280,114.50,7.90e+01,2,,7.74e+01,4.02e+00,1,8.88e+00
"1/0362148851.51240",2014-10-23T12:54:15.576,13722,1387.00,67.94,67.75,"05:08:41",281.13,-0.580,1.280,114.37,8.20e+01,2,,8.34e+01,4.23e+00,1,8.45e+00
"1/0362148859.21290",2014-10-23T12:54:23.119,13722,1377.00,68.24,68.05,"05:27:08",281.05,-0.580,1.280,114.23,8.30e+01,2,,8.54e+01,4.32e+00,1,8.27e+00
"1/0362148866.56942",2014-10-23T12:54:30.663,13722,1367.00,68.54,68.35,"05:47:53",280.96,-0.570,1.270,114.09,8.80e+01,2,,9.60e+01,4.32e+00,1,8.27e+00
"1/0362148874.26992",2014-10-23T12:54:38.206,13722,1356.00,68.84,68.65,"06:08:38",280.87,-0.570,1.270,113.95,9.10e+01,2,,1.03e+02,,,
"1/0362148881.62578",2014-10-23T12:54:45.749,13722,1346.00,69.14,68.96,"06:31:41",280.77,-0.560,1.270,113.81,9.10e+01,2,,1.03e+02,3.91e+00,1,9.14e+00
"1/0362148889.32628",2014-10-23T12:54:53.292,13722,1335.00,69.45,69.26,"06:54:43",280.67,-0.560,1.270,113.67,9.50e+01,2,,1.12e+02,3.88e+00,1,9.20e+00
"1/0362148897.02678",2014-10-23T12:55:00.835,13722,1325.00,69.75,69.57,"07:20:03",280.56,-0.550,1.270,113.52,9.80e+01,2,,1.19e+02,3.95e+00,1,9.05e+00
"1/0362148904.38329",2014-10-23T12:55:08.379,13722,1315.00,70.06,69.88,"07:45:23",280.45,-0.550,1.270,113.38,9.80e+01,2,,1.19e+02,4.09e+00,1,8.74e+00
"1/0362148912.08379",2014-10-23T12:55:15.922,13722,1304.00,70.37,70.18,"08:10:43",280.34,-0.540,1.270,113.23,1.00e+02,2,,1.24e+02,,,
"1/0362148919.43965",2014-10-23T12:55:23.465,13722,1294.00,70.67,70.49,"08:38:20",280.22,-0.540,1.260,113.09,1.00e+02,2,,1.24e+02,4.47e+00,1,7.99e+00
"1/0362148927.14015",2014-10-23T12:55:31.008,13722,1284.00,70.98,70.81,"09:08:15",280.09,-0.540,1.260,112.94,1.00e+02,2,,1.24e+02,4.46e+00,1,8.01e+00
"1/0362148934.49601",2014-10-23T12:55:38.551,13722,1274.00,71.29,71.12,"09:38:10",279.96,-0.530,1.260,112.79,1.03e+02,2,,1.32e+02,,,
"1/0362148942.19717",2014-10-23T12:55:46.095,13722,1263.00,71.61,71.43,"10:08:05",279.83,-0.530,1.260,112.64,1.08e+02,2,,1.45e+02,,,
"1/0362148949.55303",2014-10-23T12:55:53.638,13722,1253.00,71.92,71.75,"10:42:35",279.68,-0.520,1.260,112.49,1.17e+02,2,,1.70e+02,3.93e+00,1,9.08e+00
"1/0362148957.25353",2014-10-23T12:56:01.181,13722,1243.00,72.23,72.07,"11:17:05",279.53,-0.520,1.260,112.33,1.14e+02,2,,1.61e+02,3.78e+00,1,9.45e+00
"1/0362148964.60939",2014-10-23T12:56:08.724,13722,1233.00,72.55,72.38,"11:51:35",279.38,-0.510,1.260,112.18,1.23e+02,2,,1.88e+02,3.87e+00,1,9.23e+00
"1/0362148972.30989",2014-10-23T12:56:16.267,13722,1223.00,72.87,72.70,"12:30:40",279.21,-0.510,1.250,112.02,1.22e+02,2,,1.85e+02,3.97e+00,1,8.99e+00
"1/0362148980.01104",2014-10-23T12:56:23.811,13722,1213.00,73.18,73.02,"13:09:45",279.04,-0.500,1.250,111.87,1.15e+02,2,,1.64e+02,3.92e+00,1,9.11e+00
"1/0362148987.36691",2014-10-23T12:56:31.354,13722,1203.00,73.50,73.34,"13:51:08",278.86,-0.500,1.250,111.71,1.06e+02,2,,1.39e+02,3.81e+00,1,9.38e+00
"1/0362148995.06741",2014-10-23T12:56:38.897,13722,1193.00,73.82,73.67,"14:34:48",278.67,-0.500,1.250,111.55,1.05e+02,2,,1.37e+02,3.67e+00,1,9.74e+00
"1/0362149002.42327",2014-10-23T12:56:46.440,13722,1183.00,74.15,73.99,"15:20:45",278.47,-0.490,1.250,111.39,1.07e+02,2,,1.42e+02,,,
"1/0362149010.12377",2014-10-23T12:56:53.983,13722,1173.00,74.47,74.32,"16:09:00",278.26,-0.490,1.250,111.23,1.04e+02,2,,1.34e+02,3.65e+00,1,9.78e+00
"1/0362149017.48028",2014-10-23T12:57:01.527,13722,1163.00,74.79,74.64,"16:59:33",278.04,-0.480,1.250,111.06,1.07e+02,2,,1.42e+02,3.75e+00,1,9.51e+00
"1/0362149025.18078",2014-10-23T12:57:09.070,13722,1154.00,75.12,74.97,"17:54:41",277.80,-0.480,1.250,110.90,1.08e+02,2,,1.45e+02,3.73e+00,1,9.58e+00
"1/0362149032.53664",2014-10-23T12:57:16.613,13722,1144.00,75.44,75.30,"18:49:48",277.56,-0.470,1.240,110.73,1.08e+02,2,,1.45e+02,3.84e+00,1,9.29e+00
"1/0362149040.23714",2014-10-23T12:57:24.156,13722,1134.00,75.77,75.63,"19:49:31",277.30,-0.470,1.240,110.57,1.09e+02,2,,1.47e+02,3.77e+00,1,9.48e+00
"1/0362149047.59300",2014-10-23T12:57:31.699,13722,1124.00,76.10,75.96,"20:53:48",277.02,-0.460,1.240,110.40,1.11e+02,2,,1.53e+02,3.75e+00,1,9.51e+00
"1/0362149055.29416",2014-10-23T12:57:39.243,13722,1115.00,76.43,76.29,"22:00:23",276.73,-0.460,1.240,110.23,1.12e+02,2,,1.56e+02,,,
"1/0362149062.65002",2014-10-23T12:57:46.786,13722,1105.00,76.76,76.62,"23:09:16",276.43,-0.450,1.240,110.06,1.16e+02,2,,1.67e+02,,,
"1/0362149070.35052",2014-10-23T12:57:54.329,13722,1095.00,77.09,76.95,"00:25:01",276.10,-0.450,1.240,109.89,1.10e+02,2,,1.50e+02,3.82e+00,1,9.35e+00
"1/0362149078.05102",2014-10-23T12:58:01.872,13722,1086.00,77.42,77.29,"01:43:04",275.76,-0.440,1.240,109.71,1.12e+02,2,,1.56e+02,,,
"1/0362149085.40753",2014-10-23T12:58:09.416,13722,1076.00,77.75,77.62,"03:07:59",275.39,-0.440,1.230,109.54,1.09e+02,2,,1.47e+02,3.88e+00,1,9.20e+00
"1/0362149093.10803",2014-10-23T12:58:16.959,13722,1067.00,78.08,77.96,"04:37:29",275.00,-0.430,1.230,109.36,1.10e+02,2,,1.50e+02,3.82e+00,1,9.35e+00
"1/0362149100.46389",2014-10-23T12:58:24.502,13722,1057.00,78.42,78.30,"06:13:52",274.58,-0.430,1.230,109.19,1.15e+02,2,,1.64e+02,3.90e+00,1,9.17e+00
"1/0362149108.16440",2014-10-23T12:58:32.045,13722,1048.00,78.75,78.63,"07:54:50",274.14,-0.420,1.230,109.01,1.22e+02,2,,1.85e+02,,,
"1/0362149115.52026",2014-10-23T12:58:39.588,13722,1039.00,79.09,78.97,"09:44:58",273.66,-0.420,1.230,108.83,1.28e+02,2,,2.03e+02,,,
"1/0362149123.22141",2014-10-23T12:58:47.132,13722,1029.00,79.42,79.31,"11:41:58",273.15,-0.420,1.230,108.65,1.30e+02,2,,2.10e+02,,,
"1/0362149130.57727",2014-10-23T12:58:54.675,13722,1020.00,79.76,79.65,"13:48:08",272.60,-0.410,1.230,108.47,1.27e+02,2,,2.00e+02,4.09e+00,1,8.74e+00
"1/0362149138.27777",2014-10-23T12:59:02.218,13722,1011.00,80.10,79.99,"16:01:11",272.02,-0.410,1.230,108.28,1.36e+02,2,,2.29e+02,4.11e+00,1,8.68e+00
"1/0362149145.63363",2014-10-23T12:59:09.761,13722,1002.00,80.43,80.33,"18:27:59",271.38,-0.400,1.220,108.10,1.42e+02,2,,2.50e+02,,,
"1/0362149153.33413",2014-10-23T12:59:17.304,13722,992.00,80.77,80.67,"21:03:57",270.70,-0.400,1.220,107.91,1.55e+02,2,,2.98e+02,,,
"1/0362149161.03529",2014-10-23T12:59:24.848,13722,983.00,81.11,81.01,"23:55:58",269.95,-0.390,1.220,107.72,1.67e+02,2,,3.46e+02,,,
"1/0362149168.39115",2014-10-23T12:59:32.391,13722,974.00,81.44,81.35,"02:59:26",269.15,-0.390,1.220,107.54,1.70e+02,2,,3.58e+02,,,
"1/0362149176.09165",2014-10-23T12:59:39.934,13722,965.00,81.78,81.69,"06:21:14",268.27,-0.380,1.220,107.35,1.69e+02,2,,3.54e+02,,,
"1/0362149183.44751",2014-10-23T12:59:47.477,13722,956.00,82.11,82.03,"10:01:22",267.31,-0.380,1.220,107.15,1.66e+02,2,,3.42e+02,,,
"1/0362149191.14801",2014-10-23T12:59:55.020,13722,947.00,82.45,82.36,"14:02:08",266.26,-0.370,1.220,106.96,1.55e+02,2,,2.98e+02,,,
"1/0362149198.50452",2014-10-23T13:00:02.564,13722,938.00,82.78,82.70,"18:25:49",265.11,-0.370,1.220,106.77,1.61e+02,2,,3.21e+02,,,
"1/0362149206.20502",2014-10-23T13:00:10.107,13722,930.00,83.11,83.03,"23:17:00",263.84,-0.360,1.210,106.57,1.71e+02,2,,3.63e+02,,,
"1/0362149213.56088",2014-10-23T13:00:17.650,13722,921.00,83.44,83.36,"04:40:17",262.43,-0.360,1.210,106.38,1.76e+02,2,,3.84e+02,,,
"1/0362149221.26138",2014-10-23T13:00:25.193,13722,912.00,83.76,83.69,"10:37:56",260.87,-0.350,1.210,106.18,1.57e+02,2,,3.06e+02,,,
"1/0362149228.61724",2014-10-23T13:00:32.736,13722,903.00,84.08,84.01,"17:16:50",259.13,-0.350,1.210,105.98,1.74e+02,2,,3.75e+02,3.68e+00,1,9.71e+00
"1/0362149236.31840",2014-10-23T13:00:40.280,13722,895.00,84.39,84.33,"00:43:51",257.18,-0.340,1.210,105.78,1.56e+02,2,,3.02e+02,3.67e+00,1,9.74e+00
"1/0362149244.01890",2014-10-23T13:00:47.823,13722,886.00,84.70,84.64,"09:05:53",254.99,-0.340,1.210,105.58,1.51e+02,2,,2.83e+02,3.68e+00,1,9.71e+00
"1/0362149251.37476",2014-10-23T13:00:55.366,13722,878.00,85.00,84.95,"18:34:23",252.51,-0.330,1.210,105.38,1.48e+02,2,,2.72e+02,3.64e+00,1,9.81e+00
"1/0362149259.07526",2014-10-23T13:01:02.909,13722,869.00,85.30,85.24,"05:16:13",249.71,-0.330,1.210,105.17,1.44e+02,2,,2.57e+02,3.46e+00,1,1.03e+01
"1/0362149266.43112",2014-10-23T13:01:10.452,13722,861.00,85.58,85.52,"17:22:51",246.54,-0.320,1.200,104.97,1.48e+02,2,,2.72e+02,3.49e+00,1,1.02e+01
"1/0362149274.13228",2014-10-23T13:01:17.996,13722,852.00,85.84,85.79,"07:10:20",242.93,-0.320,1.200,104.76,1.49e+02,2,,2.75e+02,,,
"1/0362149281.48814",2014-10-23T13:01:25.539,13722,844.00,86.09,86.04,"22:52:24",238.82,-0.310,1.200,104.55,1.50e+02,2,,2.79e+02,3.54e+00,1,1.01e+01
"1/0362149289.18864",2014-10-23T13:01:33.082,13722,836.00,86.31,86.27,"16:38:13",234.17,-0.310,1.200,104.34,1.53e+02,2,,2.90e+02,3.56e+00,1,1.00e+01
"1/0362149296.54450",2014-10-23T13:01:40.625,13722,828.00,86.51,86.47,"12:39:15",228.93,-0.300,1.200,104.13,1.69e+02,2,,3.54e+02,3.74e+00,1,9.54e+00
"1/0362149304.24500",2014-10-23T13:01:48.168,13722,819.00,86.68,86.64,"10:57:49",223.09,-0.300,1.200,103.92,1.65e+02,2,,3.38e+02,,,
"1/0362149311.60151",2014-10-23T13:01:55.712,13722,811.00,86.81,86.77,"11:27:00",216.68,-0.290,1.200,103.71,1.60e+02,2,,3.17e+02,3.65e+00,1,9.78e+00
"1/0362149319.30201",2014-10-23T13:02:03.255,13722,803.00,86.89,86.85,"13:43:54",209.80,-0.290,1.200,103.49,1.65e+02,2,,3.38e+02,3.74e+00,1,9.54e+00
"1/0362149327.00251",2014-10-23T13:02:10.798,13722,795.00,86.93,86.89,"17:09:33",202.62,-0.280,1.190,103.28,1.68e+02,2,,3.50e+02,,,
"1/0362149334.35837",2014-10-23T13:02:18.341,13722,787.00,86.92,86.88,"20:55:50",195.35,-0.280,1.190,103.06,1.75e+02,2,,3.80e+02,,,
"1/0362149342.05887",2014-10-23T13:02:25.884,13722,779.00,86.86,86.82,"00:10:02",188.22,-0.270,1.190,102.84,1.78e+02,2,,3.93e+02,,,
"1/0362149349.41539",2014-10-23T13:02:33.428,13722,772.00,86.75,86.71,"02:04:01",181.44,-0.270,1.190,102.62,1.85e+02,2,,4.24e+02,,,
"1/0362149357.11589",2014-10-23T13:02:40.971,13722,764.00,86.60,86.56,"02:03:25",175.16,-0.260,1.190,102.40,1.90e+02,2,,4.48e+02,,,
"1/0362149364.47175",2014-10-23T13:02:48.514,13722,756.00,86.41,86.36,"23:49:53",169.46,-0.260,1.190,102.18,1.92e+02,2,,4.57e+02,,,
"1/0362149372.17225",2014-10-23T13:02:56.057,13722,748.00,86.18,86.14,"19:18:50",164.36,-0.250,1.190,101.96,1.98e+02,2,,4.86e+02,,,
"1/0362149379.52811",2014-10-23T13:03:03.600,13722,741.00,85.93,85.89,"12:34:52",159.84,-0.250,1.190,101.73,2.00e+02,2,,4.96e+02,,,
"1/0362149387.22927",2014-10-23T13:03:11.144,13722,733.00,85.66,85.61,"03:49:26",155.85,-0.240,1.190,101.51,2.03e+02,2,,5.11e+02,,,
"1/0362149394.58513",2014-10-23T13:03:18.687,13722,726.00,85.36,85.31,"17:11:41",152.35,-0.240,1.180,101.28,2.04e+02,2,,5.16e+02,,,
"1/0362149402.28563",2014-10-23T13:03:26.230,13722,718.00,85.05,85.00,"04:57:42",149.27,-0.230,1.180,101.05,2.06e+02,2,,5.26e+02,,,
"1/0362149409.64149",2014-10-23T13:03:33.773,13722,711.00,84.73,84.67,"15:21:12",146.55,-0.220,1.180,100.82,2.00e+02,2,,4.96e+02,,,
"1/0362149417.34199",2014-10-23T13:03:41.316,13722,704.00,84.39,84.33,"00:33:39",144.14,-0.220,1.180,100.59,2.21e+02,2,,6.06e+02,,,
"1/0362149425.04314",2014-10-23T13:03:48.860,13722,697.00,84.04,83.98,"08:41:56",142.01,-0.210,1.180,100.36,1.77e+02,2,,3.89e+02,,,
"1/0362149432.39900",2014-10-23T13:03:56.403,13722,689.00,83.69,83.62,"15:57:30",140.11,-0.210,1.180,100.13,1.98e+02,2,,4.86e+02,,,
"1/0362149440.09950",2014-10-23T13:04:03.946,13722,682.00,83.33,83.25,"22:27:14",138.41,-0.200,1.180,99.90,2.05e+02,2,,5.21e+02,,,
"1/0362149447.45536",2014-10-23T13:04:11.489,13722,675.00,82.96,82.88,"04:15:43",136.89,-0.200,1.180,99.66,2.03e+02,2,,5.11e+02,,,
"1/0362149455.15586",2014-10-23T13:04:19.032,13722,668.00,82.58,82.50,"09:32:07",135.51,-0.190,1.170,99.42,1.97e+02,2,,4.81e+02,,,
"1/0362149462.51238",2014-10-23T13:04:26.576,13722,661.00,82.20,82.11,"14:16:25",134.27,-0.190,1.170,99.19,1.87e+02,2,,4.34e+02,4.12e+00,1,8.66e+00
"1/0362149470.21288",2014-10-23T13:04:34.119,13722,655.00,81.81,81.72,"18:35:31",133.14,-0.180,1.170,98.95,1.70e+02,2,,3.58e+02,,,
"1/0362149477.56874",2014-10-23T13:04:41.662,13722,648.00,81.42,81.33,"22:29:25",132.12,-0.180,1.170,98.71,1.80e+02,2,,4.02e+02,,,
"1/0362149485.26924",2014-10-23T13:04:49.205,13722,641.00,81.03,80.93,"02:04:58",131.18,-0.170,1.170,98.47,1.95e+02,2,,4.72e+02,,,
"1/0362149492.62510",2014-10-23T13:04:56.748,13722,635.00,80.63,80.53,"05:22:11",130.32,-0.170,1.170,98.23,1.88e+02,2,,4.38e+02,3.67e+00,1,9.74e+00
"1/0362149500.32626",2014-10-23T13:05:04.292,13722,628.00,80.23,80.12,"08:23:22",129.53,-0.160,1.170,97.98,1.96e+02,2,,4.76e+02,,,
"1/0362149508.02676",2014-10-23T13:05:11.835,13722,622.00,79.83,79.71,"11:10:47",128.80,-0.160,1.170,97.74,2.04e+02,2,,5.16e+02,,,
"1/0362149515.38262",2014-10-23T13:05:19.378,13722,615.00,79.42,79.30,"13:44:28",128.13,-0.150,1.160,97.49,1.98e+02,2,,4.86e+02,,,
"1/0362149523.08312",2014-10-23T13:05:26.921,13722,609.00,79.01,78.89,"16:08:58",127.50,-0.150,1.160,97.25,1.88e+02,2,,4.38e+02,,,
"1/0362149530.43898",2014-10-23T13:05:34.464,13722,603.00,78.60,78.47,"18:22:01",126.92,-0.140,1.160,97.00,2.00e+02,2,,4.96e+02,,,
"1/0362149538.14013",2014-10-23T13:05:42.008,13722,596.00,78.18,78.05,"20:25:54",126.38,-0.140,1.160,96.75,2.01e+02,2,,5.01e+02,,,
"1/0362149545.49599",2014-10-23T13:05:49.551,13722,590.00,77.76,77.63,"22:20:37",125.88,-0.130,1.160,96.50,2.07e+02,2,,5.31e+02,,,
"1/0362149553.19649",2014-10-23T13:05:57.094,13722,584.00,77.35,77.20,"00:08:27",125.41,-0.120,1.160,96.25,2.09e+02,2,,5.42e+02,,,
"1/0362149560.55235",2014-10-23T13:06:04.637,13722,578.00,76.92,76.78,"01:49:25",124.97,-0.120,1.160,96.00,2.16e+02,2,,5.79e+02,,,
"1/0362149568.25285",2014-10-23T13:06:12.180,13722,572.00,76.50,76.35,"03:23:30",124.56,-0.110,1.160,95.75,2.15e+02,2,,5.73e+02,,,
"1/0362149575.60937",2014-10-23T13:06:19.724,13722,566.00,76.07,75.92,"04:50:43",124.18,-0.110,1.160,95.50,2.11e+02,2,,5.52e+02,,,
"1/0362149583.30987",2014-10-23T13:06:27.267,13722,561.00,75.65,75.49,"06:15:38",123.81,-0.100,1.150,95.24,2.25e+02,2,,6.28e+02,,,
"1/0362149591.01037",2014-10-23T13:06:34.810,13722,555.00,75.22,75.05,"07:33:41",123.47,-0.100,1.150,94.99,2.30e+02,2,,6.56e+02,,,
"1/0362149598.36623",2014-10-23T13:06:42.353,13722,549.00,74.79,74.62,"08:47:08",123.15,-0.090,1.150,94.73,2.28e+02,2,,6.45e+02,,,
"1/0362149606.06739",2014-10-23T13:06:49.897,13722,544.00,74.35,74.18,"09:56:01",122.85,-0.090,1.150,94.47,2.30e+02,2,,6.56e+02,,,
"1/0362149613.42325",2014-10-23T13:06:57.440,13722,539.00,73.92,73.74,"11:02:36",122.56,-0.080,1.150,94.22,2.44e+02,2,,7.38e+02,,,
"1/0362149621.12375",2014-10-23T13:07:04.983,13722,533.00,73.48,73.30,"12:04:36",122.29,-0.080,1.150,93.96,2.51e+02,2,,7.81e+02,,,
"1/0362149628.47961",2014-10-23T13:07:12.526,13722,528.00,73.04,72.85,"13:04:19",122.03,-0.070,1.150,93.70,2.48e+02,2,,7.63e+02,,,
"1/0362149636.18011",2014-10-23T13:07:20.069,13722,523.00,72.60,72.41,"13:59:27",121.79,-0.070,1.150,93.44,2.28e+02,2,,6.45e+02,,,
"1/0362149643.53662",2014-10-23T13:07:27.613,13722,518.00,72.16,71.96,"14:52:17",121.56,-0.060,1.140,93.18,2.31e+02,2,,6.62e+02,,,
"1/0362149651.23712",2014-10-23T13:07:35.156,13722,513.00,71.72,71.52,"15:42:49",121.34,-0.060,1.140,92.91,2.28e+02,2,,6.45e+02,,,
"1/0362149658.59298",2014-10-23T13:07:42.699,13722,508.00,71.27,71.07,"16:31:04",121.13,-0.050,1.140,92.65,2.37e+02,2,,6.97e+02,,,
"1/0362149666.29348",2014-10-23T13:07:50.242,13722,503.00,70.83,70.62,"17:17:02",120.93,-0.040,1.140,92.39,2.37e+02,2,,6.97e+02,,,
"1/0362149673.64934",2014-10-23T13:07:57.785,13722,498.00,70.38,70.17,"18:00:42",120.74,-0.040,1.140,92.12,2.59e+02,2,,8.32e+02,,,
"1/0362149681.35050",2014-10-23T13:08:05.329,13722,493.00,69.93,69.71,"18:42:04",120.56,-0.030,1.140,91.86,2.69e+02,2,,8.97e+02,,,
"1/0362149689.05100",2014-10-23T13:08:12.872,13722,489.00,69.48,69.26,"19:21:09",120.39,-0.030,1.140,91.59,2.62e+02,2,,8.51e+02,,,
"1/0362149696.40686",2014-10-23T13:08:20.415,13722,484.00,69.03,68.80,"20:00:14",120.22,-0.020,1.140,91.32,2.81e+02,2,,9.79e+02,,,
"1/0362149704.10736",2014-10-23T13:08:27.958,13722,480.00,68.58,68.35,"20:34:44",120.07,-0.020,1.140,91.06,2.83e+02,2,,9.93e+02,,,
"1/0362149711.46322",2014-10-23T13:08:35.501,13722,475.00,68.13,67.89,"21:09:14",119.92,-0.010,1.130,90.79,2.77e+02,2,,9.51e+02,,,
"1/0362149719.16438",2014-10-23T13:08:43.045,13722,471.00,67.67,67.43,"21:43:44",119.77,-0.010,1.130,90.52,3.15e+02,2,,1.23e+03,,,
"1/0362149726.52024",2014-10-23T13:08:50.588,13722,467.00,67.22,66.97,"22:13:39",119.64,-0.000,1.130,90.25,3.12e+02,2,,1.21e+03,,,
"1/0362149734.22074",2014-10-23T13:08:58.131,13722,463.00,66.76,66.51,"22:45:52",119.50,0.000,1.130,89.98,3.48e+02,2,,1.50e+03,,,
"1/0362149741.57660",2014-10-23T13:09:05.674,13722,459.00,66.30,66.05,"23:13:29",119.38,0.010,1.130,89.71,3.48e+02,2,,1.50e+03,,,
"1/0362149749.27710",2014-10-23T13:09:13.217,13722,455.00,65.84,65.58,"23:41:07",119.26,0.010,1.130,89.44,3.10e+02,2,,1.19e+03,,,
"1/0362149756.63361",2014-10-23T13:09:20.761,13722,451.00,65.38,65.12,"00:08:44",119.14,0.020,1.130,89.17,3.18e+02,2,,1.25e+03,,,
"1/0362149764.33411",2014-10-23T13:09:28.304,13722,447.00,64.92,64.65,"00:34:04",119.03,0.030,1.130,88.89,3.02e+02,2,,1.13e+03,,,
"1/0362149772.03461",2014-10-23T13:09:35.847,13722,444.00,64.45,64.19,"00:57:06",118.93,0.030,1.120,88.62,3.33e+02,2,,1.38e+03,,,
"1/0362149779.39047",2014-10-23T13:09:43.390,13722,440.00,63.99,63.72,"01:20:09",118.83,0.040,1.120,88.35,3.20e+02,2,,1.27e+03,2.55e+00,1,1.40e+01
"1/0362149787.09097",2014-10-23T13:09:50.933,13722,437.00,63.53,63.25,"01:43:11",118.73,0.040,1.120,88.07,3.91e+02,2,,1.90e+03,,,
"1/0362149794.44749",2014-10-23T13:09:58.477,13722,433.00,63.06,62.78,"02:06:14",118.63,0.050,1.120,87.80,4.04e+02,2,,2.02e+03,,,
"1/0362149802.14799",2014-10-23T13:10:06.020,13722,430.00,62.59,62.31,"02:26:59",118.54,0.050,1.120,87.53,3.53e+02,2,,1.55e+03,,,
"1/0362149809.50385",2014-10-23T13:10:13.563,13722,427.00,62.12,61.84,"02:45:26",118.46,0.060,1.120,87.25,3.29e+02,2,,1.34e+03,,,
"1/0362149817.20435",2014-10-23T13:10:21.106,13722,423.00,61.66,61.37,"03:06:11",118.37,0.060,1.120,86.97,3.38e+02,2,,1.42e+03,,,
"1/0362149824.56021",2014-10-23T13:10:28.649,13722,420.00,61.19,60.89,"03:24:38",118.29,0.070,1.120,86.70,3.71e+02,2,,1.71e+03,,,
"1/0362149832.26137",2014-10-23T13:10:36.193,13722,418.00,60.72,60.42,"03:40:48",118.22,0.070,1.120,86.42,3.71e+02,2,,1.71e+03,,,
"1/0362149839.61723",2014-10-23T13:10:43.736,13722,415.00,60.24,59.95,"03:59:16",118.14,0.080,1.110,86.15,3.81e+02,2,,1.80e+03,,,
"1/0362149847.31773",2014-10-23T13:10:51.279,13722,412.00,59.77,59.47,"04:15:26",118.07,0.080,1.110,85.87,4.35e+02,2,,2.35e+03,,,
"1/0362149855.01823",2014-10-23T13:10:58.822,13722,409.00,59.30,58.99,"04:31:36",118.00,0.090,1.110,85.59,4.52e+02,2,,2.53e+03,,,
"1/0362149862.37409",2014-10-23T13:11:06.365,13722,407.00,58.83,58.52,"04:45:28",117.94,0.100,1.110,85.32,4.65e+02,2,,2.68e+03,,,
"1/0362149870.07524",2014-10-23T13:11:13.909,13722,404.00,58.35,58.04,"04:59:20",117.88,0.100,1.110,85.04,4.65e+02,2,,2.68e+03,,,
"1/0362149877.43110",2014-10-23T13:11:21.452,13722,402.00,57.88,57.56,"05:15:30",117.81,0.110,1.110,84.76,4.69e+02,2,,2.73e+03,,,
"1/0362149885.13160",2014-10-23T13:11:28.995,13722,400.00,57.40,57.08,"05:27:05",117.76,0.110,1.110,84.48,4.82e+02,2,,2.88e+03,,,
"1/0362149892.48746",2014-10-23T13:11:36.538,13722,397.00,56.92,56.60,"05:40:58",117.70,0.120,1.110,84.21,4.90e+02,2,,2.98e+03,,,
"1/0362149900.18796",2014-10-23T13:11:44.081,13722,395.00,56.45,56.12,"05:54:50",117.64,0.120,1.110,83.93,4.95e+02,2,,3.04e+03,,,
"1/0362149907.54448",2014-10-23T13:11:51.625,13722,393.00,55.97,55.64,"06:06:25",117.59,0.130,1.100,83.65,4.97e+02,2,,3.06e+03,,,
"1/0362149915.24498",2014-10-23T13:11:59.168,13722,391.00,55.49,55.16,"06:18:00",117.54,0.130,1.100,83.37,5.01e+02,2,,3.11e+03,,,
"1/0362149922.60084",2014-10-23T13:12:06.711,13722,390.00,55.01,54.68,"06:29:35",117.49,0.140,1.100,83.10,4.99e+02,2,,3.09e+03,,,
"1/0362149930.30134",2014-10-23T13:12:14.254,13722,388.00,54.53,54.20,"06:38:52",117.45,0.140,1.100,82.82,4.98e+02,2,,3.08e+03,,,
"1/0362149938.00184",2014-10-23T13:12:21.797,13722,386.00,54.05,53.72,"06:50:27",117.40,0.150,1.100,82.54,5.08e+02,2,,3.20e+03,,,
"1/0362149945.35835",2014-10-23T13:12:29.341,13722,385.00,53.57,53.24,"06:59:44",117.36,0.150,1.100,82.26,5.02e+02,2,,3.13e+03,,,
"1/0362149953.05886",2014-10-23T13:12:36.884,13722,383.00,53.09,52.75,"07:09:02",117.32,0.160,1.100,81.99,5.06e+02,2,,3.18e+03,,,
"1/0362149960.41472",2014-10-23T13:12:44.427,13722,382.00,52.61,52.27,"07:18:19",117.28,0.160,1.100,81.71,4.95e+02,2,,3.04e+03,,,
"1/0362149968.11522",2014-10-23T13:12:51.970,13722,381.00,52.12,51.79,"07:27:36",117.24,0.170,1.090,81.43,4.89e+02,2,,2.97e+03,,,
"1/0362149975.47108",2014-10-23T13:12:59.513,13722,380.00,51.64,51.30,"07:36:54",117.20,0.170,1.090,81.15,4.80e+02,2,,2.86e+03,,,
"1/0362149983.17223",2014-10-23T13:13:07.057,13722,379.00,51.16,50.82,"07:46:11",117.16,0.180,1.090,80.88,4.84e+02,2,,2.90e+03,,,
"1/0362149990.52809",2014-10-23T13:13:14.600,13722,378.00,50.68,50.33,"07:53:11",117.13,0.190,1.090,80.60,4.95e+02,2,,3.04e+03,,,
"1/0362149998.22859",2014-10-23T13:13:22.143,13722,377.00,50.19,49.85,"08:00:11",117.10,0.190,1.090,80.33,4.99e+02,2,,3.09e+03,,,